Regional Weather Roundup
Issued by NWS

Home | Current Version | Previous Version | Text Only | Print | Product List | Glossary Off
Versions: 1 2 3 4 5 6 7 8 9 10 11 12 13 14 15 16 17 18 19 20 21 22 23 24 25 26 27 28 29 30 31 32 33 34 35 36 37 38 39 40 41 42 43 44 45 46 47 48 49 50

000
ASUS43 KOAX 062010
RWRNE

WEATHER ROUNDUP FOR NEBRASKA
NATIONAL WEATHER SERVICE OMAHA NE
300 PM CDT WED MAY 06 2015

NOTES: SATELLITE DATA IS BEING USED TO AUGMENT CLOUD COVER ABOVE
       12000 FEET.
       "FAIR" INDICATES FEW OR NO CLOUDS BELOW 12,000 FEET WITH NO
       SIGNIFICANT WEATHER AND/OR OBSTRUCTIONS TO VISIBILITY.

  * THESE STATIONS DO NOT REPORT WEATHER SUCH AS RAIN...SNOW OR FOG.

NEZ001>004-019>022-054>056-062100-
NEBRASKA PANHANDLE

CITY           SKY/WX    TMP DP  RH WIND       PRES   REMARKS
SCOTTSBLUFF    LGT RAIN  59  54  83 MISG      29.63F
ALLIANCE       CLOUDY    63  51  65 SE10      29.62F
CHADRON        PTSUNNY   63  54  72 S9        29.62F
KIMBALL        CLOUDY    57  55  94 N13       29.64S
SIDNEY         LGT RAIN  57  54  89 NE15      29.62F FOG
$$

NEZ057>060-069>072-079>082-062100-
SOUTHWEST NEBRASKA

CITY           SKY/WX    TMP DP  RH WIND       PRES   REMARKS
NORTH PLATTE   PTSUNNY   64  53  67 S20G26    29.63F
IMPERIAL       CLOUDY    63  53  70 SE16      29.61F
LEXINGTON      CLOUDY    67  59  75 S15G21    29.65F
MCCOOK         LGT RAIN  65  54  67 S20       29.64F
OGALLALA       CLOUDY    64  55  74 SE15      29.62F
$$

NEZ005>010-023>029-035>040-094-062100-
NORTH CENTRAL NEBRASKA

CITY           SKY/WX    TMP DP  RH WIND       PRES   REMARKS
VALENTINE      LGT RAIN  62  60  93 S8        29.65F
AINSWORTH      PTSUNNY   67  59  75 SE13      29.65F
BROKEN BOW     CLOUDY    67  57  70 SE18G28   29.66F
O`NEILL        PTSUNNY   71  59  65 S18G29    29.69F
ORD            CLOUDY    66  57  72 SE20G30   29.68S
THEDFORD       CLOUDY    62  58  87 S17G23    29.65S
$$

NEZ041-046>049-061>064-073>077-083>087-062100-
SOUTH CENTRAL NEBRASKA

CITY           SKY/WX    TMP DP  RH WIND       PRES   REMARKS
GRAND ISLAND   CLOUDY    67  62  84 SE18G25   29.71F
AURORA         CLOUDY    67  64  92 S21       29.72F
HASTINGS       PTSUNNY   67  60  78 S20G26    29.69F
HEBRON         CLOUDY    70  60  71 S26       29.74F
HOLDREGE       PTSUNNY   70  57  64 S13G22    29.64F
YORK           CLOUDY    66  63  88 S15       29.74F
$$

NEZ011>018-030>034-042>045-062100-
NORTHEAST NEBRASKA

CITY           SKY/WX    TMP DP  RH WIND       PRES   REMARKS
NORFOLK        CLOUDY    64  61  90 S23G30    29.75F
ALBION         CLOUDY    64  60  88 S16G25    29.73F
BLAIR          CLOUDY    67  62  83 SE17G23   29.82F
COLUMBUS *     CLOUDY    63  57  82 SE15G21   29.78F
FREMONT        CLOUDY    69  63  82 SE15G25   29.80F
TEKAMAH        CLOUDY    69  64  84 SE18      29.81F
WAYNE          CLOUDY    64  62  94 S21G29    29.78S FOG
$$

NEZ050>053-065>068-078-088>093-062100-
SOUTHEAST NEBRASKA

CITY           SKY/WX    TMP DP  RH WIND       PRES   REMARKS
LINCOLN        CLOUDY    70  61  73 S35G43    29.79F
OMAHA EPPLEY   CLOUDY    70  61  73 S24G32    29.83S
BEATRICE       CLOUDY    67  61  81 SE15G24   29.80F
FALLS CITY     CLOUDY    71  61  70 S26G35    29.86F
NEBRASKA CITY  CLOUDY    69  57  64 S23G29    29.85F
PLATTSMOUTH    CLOUDY    69  58  68 SE18G30   29.85S
$$

NEZ044-045-051>053-067-062100-
OMAHA AREA

CITY           SKY/WX    TMP DP  RH WIND       PRES   REMARKS
OMAHA EPPLEY   CLOUDY    70  61  73 S24G32    29.83S
BLAIR          CLOUDY    67  62  83 SE17G23   29.82F
FREMONT        CLOUDY    69  63  82 SE15G25   29.80F
MILLARD        CLOUDY    71  62  72 SE22G31   29.82F
OFFUTT AFB     CLOUDY    70  60  70 SE26G33   29.83S
PLATTSMOUTH    CLOUDY    69  58  68 SE18G30   29.85S
WAHOO            N/A     70  61  73 S25       29.80
$$


USA.gov is the U.S. government's official web portal to all federal, state and local government web resources and services.